Location: ???????
(60.4260°N, 46.9069°E)
Time: 18:33:54
(UTC+00:00)

Cosmos 2279 Rocket - Pass Details

Date: 30 March 2020
Orbit: 964 x 978 km, 82.9° (Epoch: 05 June)

Event Time Altitude Azimuth Distance (km) Brightness Sun altitude
Rises 00:30:53 0° 346° (NNW) 3,676 7.3 -13.5°
Reaches altitude 10° 00:33:24 10° 347° (NNW) 2,728 6.6 -13.3°
Maximum altitude 00:39:41 87° 77° (ENE) 983 4.1 -12.6°
Drops below altitude 10° 00:45:56 10° 167° (SSE) 2,721 6.2 -12.0°
Sets 00:48:26 0° 168° (SSE) 3,666 6.8 -11.7°
